This demonstration page uses our WeatherBlox Daily Observations layout. Learn more.

Left ArrowRight Arrow

34.02893, -84.19858

Hourly Observations for October 31, 2015

Temp ( °F °C ) Dew Point ( °F °C ) Humidity (%) Winds ( mph kmh ) Pressure ( in mb ) Visibility ( mi km ) Precip ( " mm )
12:53 am 00:53 Clear 47 8.3 46 7.8 97 97 Calm 30.07 1018 10 16 0.00 0.00
1:53 am 01:53 Clear 45 7.2 45 7.2 100 100 Calm 30.07 1018 10 16 0.00 0.00
2:53 am 02:53 Clear 50 10 46 7.8 86 86 Calm 30.07 1018 10 16 0.00 0.00
3:53 am 03:53 Clear 51 10.6 47 8.3 86 86 WNW 5 7 30.10 1019 10 16 0.00 0.00
4:53 am 04:53 Clear 51 10.6 46 7.8 83 83 E 3 6 30.07 1018 10 16 0.00 0.00
5:53 am 05:53 Clear 52 11.1 47 8.3 83 83 Calm 30.08 1019 10 16 0.00 0.00
6:53 am 06:53 Clear 52 11.1 48 8.9 86 86 E 7 11 30.07 1018 10 16 0.00 0.00
7:53 am 07:53 Clear 52 11.1 48 8.9 86 86 VRB 5 7 30.09 1019 10 16 0.00 0.00
8:53 am 08:53 Mostly Cloudy 53 11.7 49 9.4 86 86 VRB 6 9 30.11 1020 10 16 0.00 0.00
9:53 am 09:53 Mostly Cloudy 54 12.2 49 9.4 83 83 VRB 6 9 30.13 1020 10 16 0.00 0.00
10:53 am 10:53 Cloudy 55 12.8 49 9.4 80 80 VRB 5 7 30.14 1021 10 16 0.00 0.00
11:53 am 11:53 Mostly Cloudy 56 13.3 50 10 81 81 ENE 8 13 30.14 1021 10 16 0.00 0.00
12:53 pm 12:53 Cloudy 59 15 50 10 72 72 ENE 8 13 30.14 1021 10 16 0.00 0.00
1:53 pm 13:53 Cloudy 61 16.1 51 10.6 70 70 ENE 6 9 30.11 1020 10 16 0.00 0.00
2:53 pm 14:53 Mostly Sunny 59 15 51 10.6 75 75 Calm 30.10 1019 10 16 0.00 0.00
3:53 pm 15:53 Mostly Cloudy 59 15 52 11.1 78 78 E 5 7 30.06 1018 10 16 0.00 0.00
4:53 pm 16:53 Mostly Cloudy 60 15.6 53 11.7 78 78 VRB 5 7 30.05 1018 10 16 0.00 0.00
5:53 pm 17:53 Mostly Cloudy 59 15 53 11.7 81 81 VRB 5 7 30.04 1017 10 16 0.00 0.00
6:53 pm 18:53 Mostly Cloudy 58 14.4 53 11.7 84 84 VRB 5 7 30.05 1018 10 16 0.00 0.00
7:53 pm 19:53 Mostly Clear 57 13.9 52 11.1 83 83 VRB 6 9 30.05 1018 10 16 0.00 0.00
8:53 pm 20:53 Partly Cloudy 57 13.9 52 11.1 83 83 VRB 7 11 30.04 1017 10 16 0.00 0.00
9:53 pm 21:53 Cloudy 57 13.9 52 11.1 83 83 VRB 7 11 30.03 1017 10 16 0.00 0.00
10:53 pm 22:53 Cloudy 57 13.9 52 11.1 83 83 undefined N/A 30.03 1017 10 16 0.00 0.00

Powered by AerisWeather